sat.trackr.live / text

‹ back to catalog

SSOT

NORAD 38011 · 2011-076E

PAYLOAD ACTIVE UNKNOWN

§ Identity

Operator
Country
CHLE
Launch date
2011-12-17
Launch site
FRGUI
Launch vehicle
Mass (kg)
RCS (m²)
0.73

External: N2YO · Heavens-Above · Gunter

§ Orbital elements

Epoch: 2026-09-20T04:19:43.523040Z

Period
97.12 min
Inclination
97.7971°
Eccentricity
0.0001478
Mean motion
14.82663886 rev/d
Perigee alt
619.9 km
Apogee alt
622.0 km
Semi-major
6,999.1 km
B*
3.1263e-5
RAAN
321.2798°
Arg perigee
93.9505°
Mean anomaly
350.4019°
Rev number
79,845

§ Raw data

SSOT1 38011U 11076E   26263.18036485  .00000201  00000+0  31263-4 0  99932 38011  97.7971 321.2798 0001478  93.9505 350.4019 14.82663886798455

JSON: /api/v1/satellites/38011 · /tle

For live sub-satellite position, see the globe view (requires WebGL).

§ Visibility from observer

Set your observer location to see the next 7 days of passes ≥ 10°. The values pass through the URL so the page stays shareable.

No JS? Fill the form by hand. The geolocation button needs JavaScript.